sat.trackr.live / text

‹ back to catalog

STARLINK-33703

NORAD 63418 · 2025-065V

PAYLOAD ACTIVE UNKNOWN

§ Identity

Operator
Country
US
Launch date
2025-03-31
Launch site
AFETR
Launch vehicle
Mass (kg)
RCS (m²)

Purposes: comms

External: N2YO · Heavens-Above · Gunter

§ Orbital elements

Epoch: 2026-05-24T23:20:46.728384Z

Period
94.27 min
Inclination
43.0013°
Eccentricity
0.0001498
Mean motion
15.27573545 rev/d
Perigee alt
482.0 km
Apogee alt
484.1 km
Semi-major
6,861.2 km
B*
7.1261e-4
RAAN
36.4573°
Arg perigee
277.3926°
Mean anomaly
82.6755°
Rev number
6,450

§ Raw data

STARLINK-337031 63418U 25065V   26144.97276306  .00019395  00000+0  71261-3 0  99932 63418  43.0013  36.4573 0001498 277.3926  82.6755 15.27573545 64503

JSON: /api/v1/satellites/63418 · /tle

For live sub-satellite position, see the globe view (requires WebGL).

§ Visibility from observer

Set your observer location to see the next 7 days of passes ≥ 10°. The values pass through the URL so the page stays shareable.

No JS? Fill the form by hand. The geolocation button needs JavaScript.